Meishomaru — JD3044 — position and weather

sailwx.info

Track history (hours):
 
Tides and Currents Weather Stations Pressure Air Temp Water Temp Dewpoint Dewpoint Depression Visibility Wind Speed Wind Dir Waves Ship Positions

Meishomaru

Last reported at 2014-Oct-22 22:09 UTC. Time now 2014-Oct-23 02:25 UTC.
Position N 35°29' E 139°56'.

Length 68 m; draft 2.6 m.

Type: Tanker. MMSI: 431001216.

Date/timePositionNaut miles runAvg speedWind from/ knotsBaromVisibWave heightAir tempDewpointWater temp
2014-Oct-22 22:09N 35°29' E 139°56'0 0.0
2014-Oct-22 21:27N 35°29' E 139°56'0 0.0
2014-Oct-22 20:27N 35°29' E 139°56'0 0.0
2014-Oct-22 19:27N 35°29' E 139°56'0 0.0
2014-Oct-22 18:27N 35°29' E 139°56'0 0.0
2014-Oct-22 17:33N 35°29' E 139°56'7 7.3
2014-Oct-22 16:33N 35°25' E 139°48'1010.1
2014-Oct-22 15:34N 35°16' E 139°47'6 0.2
2014-Oct-21 06:33N 35°21' E 139°42'9 9.4
2014-Oct-21 05:33N 35°30' E 139°45'0 0.0
2014-Oct-21 00:22N 35°30' E 139°45'3 4.0
2014-Oct-20 23:31N 35°29' E 139°49'0 0.0
2014-Oct-20 22:31N 35°29' E 139°49'0 0.0
2014-Oct-20 21:28N 35°29' E 139°49'0 0.0
2014-Oct-20 20:31N 35°29' E 139°49'0 0.0
2014-Oct-20 19:31N 35°29' E 139°49'0 0.0
2014-Oct-20 18:28N 35°29' E 139°49'0 0.0
2014-Oct-20 17:31N 35°29' E 139°49'0 0.0
2014-Oct-20 16:31N 35°29' E 139°49'0 0.0
2014-Oct-20 15:31N 35°29' E 139°49'0 0.0
2014-Oct-20 14:31N 35°29' E 139°49'0 0.0
2014-Oct-20 13:16N 35°29' E 139°49'0 0.1
2014-Oct-20 12:28N 35°29' E 139°49'0 0.0
2014-Oct-20 11:28N 35°29' E 139°49'0 0.0
2014-Oct-20 10:19N 35°29' E 139°49'0 0.0
2014-Oct-20 09:31N 35°29' E 139°49'0 0.0
2014-Oct-20 08:31N 35°29' E 139°49'0 0.0
2014-Oct-20 07:28N 35°29' E 139°49'0 0.0
2014-Oct-20 06:31N 35°29' E 139°49'0 0.0
2014-Oct-20 05:28N 35°29' E 139°49'0 0.1
2014-Oct-20 04:31N 35°29' E 139°49'0 0.1
2014-Oct-20 03:31N 35°29' E 139°49'0 0.0
2014-Oct-20 02:25N 35°29' E 139°49'0 0.0
2014-Oct-20 01:31N 35°29' E 139°49'0 0.0
2014-Oct-20 00:31N 35°29' E 139°49'0 0.0
2014-Oct-19 23:31N 35°29' E 139°49'0 0.0
2014-Oct-19 22:28N 35°29' E 139°49'0 0.0
2014-Oct-19 21:22N 35°29' E 139°49'0 0.0
2014-Oct-19 20:31N 35°29' E 139°49'0 0.0
2014-Oct-19 19:31N 35°29' E 139°49'2 1.9
2014-Oct-19 18:34N 35°27' E 139°48'1111.1
2014-Oct-19 17:33N 35°16' E 139°46'0 0.0
2014-Oct-18 05:27N 35°16' E 139°46'1011.0
2014-Oct-18 04:33N 35°26' E 139°45'6 0.9
2014-Oct-17 22:32N 35°28' E 139°52'1111.3
2014-Oct-17 21:33N 35°19' E 139°44'1010.4
2014-Oct-17 20:33N 35°09' E 139°46'  
2014-Oct-15 12:07N 34°11' E 132°17'711.8
2014-Oct-15 11:33N 34°06' E 132°23'  
Track history (hours):
 
Tides and Currents Weather Stations Pressure Air Temp Water Temp Dewpoint Dewpoint Depression Visibility Wind Speed Wind Dir Waves Ship Positions

Meishomaru

Last reported at 2014-Oct-22 22:09 UTC. Time now 2014-Oct-23 02:25 UTC.
Position N 35°29' E 139°56'.

Length 68 m; draft 2.6 m.

Type: Tanker. MMSI: 431001216.

Date/timePositionNaut miles runAvg speedWind from/ knotsBaromVisibWave heightAir tempDewpointWater temp
2014-Oct-22 22:09N 35°29' E 139°56'0 0.0
2014-Oct-22 21:27N 35°29' E 139°56'0 0.0
2014-Oct-22 20:27N 35°29' E 139°56'0 0.0
2014-Oct-22 19:27N 35°29' E 139°56'0 0.0
2014-Oct-22 18:27N 35°29' E 139°56'0 0.0
2014-Oct-22 17:33N 35°29' E 139°56'7 7.3
2014-Oct-22 16:33N 35°25' E 139°48'1010.1
2014-Oct-22 15:34N 35°16' E 139°47'6 0.2
2014-Oct-21 06:33N 35°21' E 139°42'9 9.4
2014-Oct-21 05:33N 35°30' E 139°45'0 0.0
2014-Oct-21 00:22N 35°30' E 139°45'3 4.0
2014-Oct-20 23:31N 35°29' E 139°49'0 0.0
2014-Oct-20 22:31N 35°29' E 139°49'0 0.0
2014-Oct-20 21:28N 35°29' E 139°49'0 0.0
2014-Oct-20 20:31N 35°29' E 139°49'0 0.0
2014-Oct-20 19:31N 35°29' E 139°49'0 0.0
2014-Oct-20 18:28N 35°29' E 139°49'0 0.0
2014-Oct-20 17:31N 35°29' E 139°49'0 0.0
2014-Oct-20 16:31N 35°29' E 139°49'0 0.0
2014-Oct-20 15:31N 35°29' E 139°49'0 0.0
2014-Oct-20 14:31N 35°29' E 139°49'0 0.0
2014-Oct-20 13:16N 35°29' E 139°49'0 0.1
2014-Oct-20 12:28N 35°29' E 139°49'0 0.0
2014-Oct-20 11:28N 35°29' E 139°49'0 0.0
2014-Oct-20 10:19N 35°29' E 139°49'0 0.0
2014-Oct-20 09:31N 35°29' E 139°49'0 0.0
2014-Oct-20 08:31N 35°29' E 139°49'0 0.0
2014-Oct-20 07:28N 35°29' E 139°49'0 0.0
2014-Oct-20 06:31N 35°29' E 139°49'0 0.0
2014-Oct-20 05:28N 35°29' E 139°49'0 0.1
2014-Oct-20 04:31N 35°29' E 139°49'0 0.1
2014-Oct-20 03:31N 35°29' E 139°49'0 0.0
2014-Oct-20 02:25N 35°29' E 139°49'0 0.0
2014-Oct-20 01:31N 35°29' E 139°49'0 0.0
2014-Oct-20 00:31N 35°29' E 139°49'0 0.0
2014-Oct-19 23:31N 35°29' E 139°49'0 0.0
2014-Oct-19 22:28N 35°29' E 139°49'0 0.0
2014-Oct-19 21:22N 35°29' E 139°49'0 0.0
2014-Oct-19 20:31N 35°29' E 139°49'0 0.0
2014-Oct-19 19:31N 35°29' E 139°49'2 1.9
2014-Oct-19 18:34N 35°27' E 139°48'1111.1
2014-Oct-19 17:33N 35°16' E 139°46'0 0.0
2014-Oct-18 05:27N 35°16' E 139°46'1011.0
2014-Oct-18 04:33N 35°26' E 139°45'6 0.9
2014-Oct-17 22:32N 35°28' E 139°52'1111.3
2014-Oct-17 21:33N 35°19' E 139°44'1010.4
2014-Oct-17 20:33N 35°09' E 139°46'  
2014-Oct-15 12:07N 34°11' E 132°17'711.8
2014-Oct-15 11:33N 34°06' E 132°23'  

Dump ship's entire track history